Location: Boguschowitz
(50.0660°N, 18.6020°E)
Time: 10:48:58
(UTC+00:00)

Daily predictions for brighter satellites

Satellite Brightness Start Highest point End
(mag) Time Altitude Azimuth Time Altitude Azimuth Time Altitude Azimuth
NOSS 3-1 (A) 4.1 15:51:30 10° NW 15:58:36 60° NE 16:06:56 10° ESE
Cosmos 1818 3.7 15:56:47 10° SW 16:02:14 86° NW 16:07:44 10° NE
Cosmos 1844 3.8 15:58:05 10° SSW 16:03:42 67° ESE 16:09:26 10° NNE
Cosmos 1892 Rocket 3.6 16:00:27 10° S 16:04:47 86° W 16:09:10 10° N
ATLAS 2AS CENTAUR R/B 4.0 15:58:08 10° W 16:05:17 35° NNW 16:12:11 10° NE
H-2A R/B 2.7 16:02:20 10° SSE 16:06:30 84° WSW 16:10:53 10° NNW
Meteor 2-1 Rocket 4.1 16:04:49 10° N 16:10:22 74° ENE 16:15:52 10° SSE
Cosmos 1703 3.9 16:09:21 10° SSE 16:12:49 33° E 16:16:20 10° NNE
Cosmos 2227 Rocket 4.5 16:11:15 10° NW 16:13:04 11° NNW 16:14:53 10° N
Cosmos 1812 Rocket 4.0 16:09:42 10° N 16:13:49 38° ENE 16:17:54 10° SE
ATLAS 5 CENTAUR R/B 3.3 16:10:25 10° WNW 16:14:01 24° NNW 16:18:05 10° NNE
X-37B 2.1 16:12:19 10° WSW 16:15:12 32° S 16:18:06 10° ESE
ISS -3.7 16:14:10 10° W 16:17:33 72° N 16:20:51 11° ENE
Okean O Rocket 1.7 16:14:34 10° SSE 16:19:00 89° SW 16:23:26 10° NNW
Iridium 4 Rocket 4.2 16:14:39 10° NNE 16:19:32 32° ENE 16:24:01 10° SE
CZ-4C R/B 3.8 16:15:18 10° WNW 16:20:09 26° N 16:25:50 10° NE
ADEOS Rocket 4.3 16:16:02 10° N 16:21:20 37° WNW 16:26:20 10° SW
Meteor 2-13 Rocket 4.5 16:16:06 10° S 16:22:11 71° E 16:28:20 10° NNE
SKYMED 2 4.3 16:20:27 10° NNE 16:24:26 34° E 16:28:22 10° SSE
CZ-4 R/B 2.3 16:21:23 10° ESE 16:24:46 27° ENE 16:28:07 10° N
USA 234 3.7 16:18:52 10° ENE 16:25:11 53° N 16:31:29 10° W
ERS-2 3.6 16:24:25 10° NE 16:26:57 18° E 16:29:27 10° SE
Cosmos 2278 Rocket 3.1 16:25:29 10° SSE 16:30:14 28° ESE 16:35:01 10° NE
Okean-O 3.4 16:26:54 10° SE 16:30:47 31° ENE 16:34:41 10° N
CZ-2C R/B 3.3 16:30:25 10° SSE 16:35:50 59° ENE 16:41:31 10° N
NOSS 2-1 (E) 3.0 16:33:14 10° SSW 16:36:29 58° SE 16:39:26 14° NE
Cosmos 1346 Rocket 4.0 16:33:45 10° SE 16:36:46 21° E 16:39:37 11° NE
Cosmos 1340 2.9 16:33:15 10° S 16:36:51 47° E 16:40:29 10° NNE
COSMOS 2455 3.8 16:31:35 10° WSW 16:37:22 45° NW 16:43:09 10° NNE
CZ-4B R/B 4.0 16:32:00 10° S 16:37:32 60° WSW 16:43:09 10° NNW
SMAP 4.5 16:37:34 10° S 16:41:59 42° W 16:46:26 10° NNW
Cosmos 1455 3.5 16:43:17 10° NNW 16:46:58 44° W 16:50:38 10° SSW
Cosmos 405 2.9 16:44:01 10° N 16:47:32 60° ENE 16:51:01 10° SSE
ARGOS 3.7 16:44:14 10° SE 16:49:04 35° ENE 16:53:56 10° N
Cosmos 1626 Rocket 3.7 16:46:42 10° SSW 16:51:07 82° W 16:55:36 10° N
Cosmos 1092 Rocket 3.9 16:45:46 10° S 16:51:54 74° E 16:58:02 10° NNE
Cosmos 1869 4.4 16:50:45 10° NNE 16:53:50 22° ENE 16:54:30 21° E
Cosmos 2263 Rocket 4.4 16:50:21 10° WNW 16:54:14 19° NW 16:58:08 10° N
Cosmos 1898 Rocket 3.5 16:49:25 10° SSW 16:54:41 84° ESE 16:59:56 10° NNE
CZ-2C R/B 3.8 16:52:21 11° NE 16:56:15 22° E 17:00:28 10° SE
TELKOM 3 2.8 16:55:38 10° W 16:57:48 68° SSW 16:58:27 39° ESE
Nadezhda 4 Rocket 4.5 16:54:37 10° SSW 17:00:46 64° WNW 17:06:55 10° N
Cosmos 1328 3.7 16:59:21 10° S 17:03:20 87° E 17:07:20 10° N
CZ-4B R/B 1.3 17:00:14 10° NNE 17:03:34 87° WNW 17:06:48 10° SSW
Cosmos 1048 Rocket 4.3 17:00:04 10° NNW 17:04:55 41° ENE 17:09:13 13° SE
MOS 1 Rocket 3.0 17:00:59 10° NNE 17:05:16 69° ESE 17:09:36 10° S
Meteor 2-15 4.4 16:59:26 10° N 17:05:37 71° ENE 17:11:45 10° SSE
CZ-2D R/B 3.5 17:02:03 10° S 17:05:52 71° WSW 17:09:42 10° NNW
Cosmos-2242 2.9 17:04:50 10° N 17:09:08 73° E 17:13:27 10° SSE
Meteor 1-11 4.2 17:04:03 10° S 17:09:38 62° E 17:15:11 10° NNE
COSMO-SKYMED 1 2.6 17:08:15 10° NNE 17:12:38 84° WNW 17:16:59 10° SSW
BREEZE-M DEB (TANK) 2.1 17:14:34 10° W 17:16:41 57° SSW 17:17:14 43° SE
Cosmos 1937 Rocket 3.5 17:12:01 10° SSW 17:17:21 86° WNW 17:22:44 10° NNE
Cosmos 1758 Rocket 3.5 17:13:20 10° S 17:17:48 79° E 17:22:19 10° NNE
Cosmos 2098 Rocket 4.3 17:11:12 10° S 17:18:37 79° E 17:25:43 10° NNE
USA 290 3.0 17:18:25 10° NNW 17:21:33 52° WSW 17:24:39 10° S
CSL-04 Debris 4.1 17:17:17 10° SSE 17:22:35 62° ENE 17:27:55 10° N
SL-08 RB Rocket 3.9 17:21:13 20° SE 17:23:58 43° ENE 17:28:12 10° N
Cosmos 1833 Rocket 3.1 17:20:01 10° NNW 17:25:36 65° WSW 17:31:09 10° SSE
NOSS 2-1 (C) 3.9 17:22:31 10° WSW 17:25:43 44° NW 17:27:19 26° NNE
H-2A R/B 2.0 17:23:08 10° SSE 17:28:13 89° WSW 17:33:30 10° NNW
Cosmos 2221 4.0 17:24:41 10° N 17:26:47 22° NNE 17:26:47 22° NNE
H-2A R/B 4.1 17:25:48 10° N 17:29:33 28° WNW 17:33:12 10° WSW
NOSS 2-2 (C) 4.5 17:25:02 10° NW 17:29:56 51° NE 17:32:40 31° E
Cosmos 2266 Rocket 4.3 17:24:37 10° SSE 17:30:17 38° E 17:35:53 10° NNE
Helios 1A Rocket 2.8 17:26:39 10° SSE 17:30:47 83° ENE 17:34:57 10° NNW
NOSS 2-1 (D) 4.0 17:28:32 10° WSW 17:31:42 39° NW 17:33:06 26° NNE
Cosmos 2298 Rocket 4.4 17:26:51 10° S 17:31:48 41° ESE 17:32:59 36° ENE
Cosmos 389 Rocket 3.7 17:30:05 10° N 17:32:02 28° NNE 17:32:02 28° NNE
CZ-3B R/B 3.2 17:32:58 10° WNW 17:35:51 45° SSW 17:44:26 10° SE
Cosmos 2026 Rocket 4.2 17:29:47 10° SSW 17:35:56 71° WNW 17:42:14 10° N
Cosmos 44 4.5 17:31:19 10° WSW 17:35:58 40° NW 17:39:31 18° NNE
Cosmos 1417 Rocket 4.4 17:32:18 10° N 17:38:34 84° E 17:44:53 10° S
Meteor 2-15 Rocket 4.5 17:32:30 10° N 17:38:43 85° W 17:44:51 10° S
SJ 16-02 3.9 17:35:38 10° W 17:38:45 19° NW 17:41:52 10° N
YAOGAN 1 3.0 17:35:36 10° S 17:39:53 64° WSW 17:44:13 10° NNW
Cosmos 1689 Rocket 3.1 17:41:34 36° SSW 17:41:34 36° SSW 17:43:24 10° SSW
SJ-11-01 4.4 17:37:00 10° S 17:41:41 75° WSW 17:46:23 10° NNW
Cosmos 1553 Rocket 4.1 17:35:19 10° N 17:41:45 82° W 17:48:04 10° S
Aureole 3 Rocket 4.4 17:39:34 10° NNW 17:42:31 32° W 17:46:02 10° SSW
In-Cosmos 22 Rocket 4.3 17:37:04 10° S 17:42:37 52° E 17:47:27 13° NNE
COSMOS 2406 4.4 17:39:22 10° NW 17:44:48 43° WSW 17:50:11 10° S
Cosmos 2082 Rocket 2.3 17:39:44 10° NNW 17:45:29 81° WSW 17:51:11 10° SSE
HJ-1C 3.5 17:47:04 60° SSW 17:47:32 74° WSW 17:50:55 10° NNW
Meteor 1-27 4.4 17:43:04 10° NNW 17:48:40 72° W 17:54:11 10° S
Cosmos 1825 Rocket 3.8 17:45:19 10° SSW 17:49:42 68° WNW 17:54:08 10° N
X-37B 2.9 17:49:05 10° WSW 17:51:19 18° SSW 17:51:36 17° SSW
deb Kosmos-1763 4.4 17:48:25 10° NNW 17:51:59 60° WSW 17:52:52 43° SSW
NOSS 2-2 (E) 4.3 17:47:57 10° NW 17:53:15 75° NE 17:56:04 37° ESE
ISS -3.0 17:51:09 10° WNW 17:53:50 52° WNW 17:53:50 52° WNW
Meteor 2-21 4.4 17:50:18 10° SSE 17:56:12 55° E 18:02:13 10° NNE
MetOp-A 4.1 17:56:26 54° E 17:56:47 55° ENE 18:02:01 10° N
ATLAS 2AS CENTAUR R/B 4.0 17:51:47 10° NW 17:58:27 30° N 18:00:55 25° NE
CZ-4 R/B 3.1 17:56:05 10° SSW 17:59:43 32° W 18:03:19 10° NNW
Cosmos 2315 Rocket 4.0 17:54:05 10° N 18:00:13 56° ENE 18:01:36 47° ESE
ATLAS 5 CENTAUR R/B 3.7 17:56:59 10° NW 18:00:20 18° N 18:00:57 18° NNE
ERS-2 3.3 17:58:38 21° N 18:00:41 42° WNW 18:04:07 10° SW
Cosmos 883 Rocket 4.3 17:55:07 10° N 18:01:20 67° ENE 18:05:20 23° SSE
CSL-04 Rocket 3.9 17:58:26 10° S 18:03:52 71° WSW 18:09:25 10° NNW
Meteor 2-14 Rocket 4.3 17:58:19 10° S 18:04:16 61° E 18:10:17 10° NNE
Okean-O 4.2 18:03:08 10° SSW 18:07:12 35° W 18:11:18 10° NNW
USA 234 3.6 18:05:52 41° NE 18:07:39 52° N 18:13:57 10° WNW
S3M 4.1 18:02:07 10° NNW 18:08:14 75° W 18:14:20 10° S
IRS-1A Rocket 4.4 18:08:25 57° ENE 18:08:27 57° ENE 18:14:10 10° N
Ariane Rocket 3.9 18:11:25 36° NNE 18:11:25 36° NNE 18:14:37 10° N
CZ-4C R/B 3.7 18:05:08 10° NW 18:10:43 30° NNE 18:11:46 28° NNE
Cosmos 1346 Rocket 4.2 18:09:15 10° SW 18:12:55 37° WNW 18:15:11 20° NNW
Cosmos 1655 Rocket 3.9 18:06:47 10° S 18:13:00 90° ESE 18:19:17 10° N
Cosmos 2278 Rocket 2.7 18:08:24 10° SW 18:13:59 57° NW 18:17:11 26° NNE
Cosmos 1953 Rocket 4.2 18:11:58 10° SSW 18:16:13 54° WNW 18:17:58 32° NNW
USA 281 4.1 18:17:58 31° NNE 18:17:58 31° NNE 18:22:44 10° NNW
DMSP B5D2-7 4.5 18:18:41 78° ESE 18:18:56 81° ENE 18:24:24 10° NNW
Cosmos 2292 Rocket 4.1 18:16:23 10° SSW 18:20:41 53° W 18:20:41 53° W
Cosmos 44 Rocket 3.6 18:19:17 10° SW 18:23:19 60° SSW 18:23:19 60° SSW
ARGOS 4.3 18:24:13 10° SSW 18:29:16 41° W 18:34:23 10° NNW
NOSS 2-2 (D) 4.4 18:27:23 10° NW 18:32:43 80° SW 18:33:29 69° SSE
CZ-2C R/B 2.9 18:33:46 26° N 18:37:02 70° WNW 18:42:37 10° SSW
Cosmos 909 Rocket 4.3 18:54:26 10° NW 19:00:09 72° NNW 19:00:09 72° NNW
USA 234 4.4 19:53:12 38° WNW 19:53:12 38° WNW 19:56:59 10° WNW
ATLAS 2AS CENTAUR R/B 4.0 19:43:49 10° NW 19:48:21 35° NNW 19:48:21 35° NNW
CZ-4C R/B 4.2 19:53:45 10° NW 19:56:58 30° NNW 19:56:58 30° NNW
